This demonstration page uses our WeatherBlox Daily Observations layout. Learn more.

41.55636, -103.73856

Hourly Observations for March 5, 2019

Temp ( °F °C ) Dew Point ( °F °C ) Humidity (%) Winds ( mph kmh ) Pressure ( in mb ) Visibility ( mi km ) Precip ( " mm )
12:53 am 00:53 Clear 2 -16.7 -4 -20 76 76 NNW 10 17 30.45 1031 10 16.09344 0 0
1:53 am 01:53 Clear 0 -17.8 -6 -21.1 76 76 WNW 10 17 30.48 1032 10 16.09344 0 0
2:53 am 02:53 Clear 2 -16.7 -7 -21.7 65 65 WNW 9 15 30.48 1032 10 16.09344 0 0
3:53 am 03:53 Clear -1 -18.3 -8 -22.2 72 72 NW 7 11 30.48 1032 10 16.09344 0 0
4:53 am 04:53 Clear -5 -20.6 -9 -22.8 83 83 NW 7 11 30.5 1033 10 16.09344 0 0
5:53 am 05:53 Clear -4 -20 -9 -22.8 79 79 NW 6 9 30.53 1034 10 16.09344 0 0
6:53 am 06:53 Sunny -4 -20 -11 -23.9 71 71 NNW 6 9 30.56 1035 10 16.09344 0 0
7:53 am 07:53 Sunny 5 -15 -5 -20.6 63 63 NW 7 11 30.56 1035 10 16.09344 0 0
8:53 am 08:53 Sunny 13 -10.6 -1 -18.3 54 54 W 6 9 30.56 1035 10 16.09344 0 0
9:53 am 09:53 Sunny 16 -8.9 2 -16.7 54 54 W 9 15 30.56 1035 10 16.09344 0 0
10:53 am 10:53 Sunny 20 -6.7 4 -15.6 50 50 WNW 5 7 30.53 1034 10 16.09344 0 0
11:53 am 11:53 Sunny 22 -5.6 5 -15 48 48 W 6 9 30.5 1033 10 16.09344 0 0
12:53 pm 12:53 Sunny 23 -5 7 -13.9 50 50 SSW 7 11 30.48 1032 10 16.09344 0 0
1:53 pm 13:53 Sunny 26 -3.3 10 -12.2 51 51 SE 6 9 30.45 1031 10 16.09344 0 0
2:53 pm 14:53 Sunny 27 -2.8 11 -11.7 51 51 ESE 8 13 30.42 1030 10 16.09344 0 0
3:53 pm 15:53 Sunny 28 -2.2 13 -10.6 53 53 SE 10 17 30.42 1030 10 16.09344 0 0
4:53 pm 16:53 Sunny 27 -2.8 14 -10 58 58 ESE 14 22 30.39 1029 10 16.09344 0 0
5:53 pm 17:53 Clear 23 -5 14 -10 68 68 E 9 15 30.39 1029 10 16.09344 0 0
6:53 pm 18:53 Clear 21 -6.1 13 -10.6 71 71 E 9 15 30.39 1029 10 16.09344 0 0
7:53 pm 19:53 Clear 19 -7.2 10 -12.2 68 68 E 9 15 30.36 1028 10 16.09344 0 0
8:53 pm 20:53 Clear 17 -8.3 10 -12.2 74 74 ESE 10 17 30.33 1027 10 16.09344 0 0
9:53 pm 21:53 Clear 17 -8.3 10 -12.2 74 74 E 9 15 30.33 1027 10 16.09344 0 0
10:53 pm 22:53 Mostly Cloudy 17 -8.3 10 -12.2 74 74 E 9 15 30.27 1025 10 16.09344 0 0
11:53 pm 23:53 Cloudy 19 -7.2 11 -11.7 71 71 E 9 15 30.24 1024 10 16.09344 0 0

Powered by AerisWeather